Loisir ou Compétition : Rejoignez un Club de la Fédération

Résultats

GP ANNECY DRAGONS

SEMNOZ

MASS Hommes

Jury de Compétition

Délégué Technique :
MIRETTI MARC (MB)
D.T. Adjoint :
HAMOUMRAOUI BERTRAND (MB)
Dir. Epreuve :
DOMENGE JEAN NOEL (MB)

Caractéristiques de la Piste

Piste :
Djinn
Distance :
5 km
Point Haut :
 
Point Bas :
 
Montée Tot. :
 
Montée Max. :
 
Homologation :
 

Pénalité Appliquée :
 
Coefficient :
 

Catégorie :
U14
Style :
C
Clt Dos Clt/Cat Code An Nom Prénom Com Club Temps Ecart Points
Classés
1 130 1/U14 FFS2686663 2005 PERRILLAT BOITEUX ANTHONY MB SC GD BORNAN 14:57.7 00:00.0
2 131 2/U14 FFS2686939 2005 GRENARD MAX MB SCNP ROCHOIS 14:58.3 00:00.6
3 129 3/U14 FFS2671565 2005 COLOMBAN ALEXIS MB SCNP ROCHOIS 15:02.4 00:04.7
4 136 4/U14 FFS2676910 2005 CLAVEL SIMON MB CS LA CLUSAZ 15:08.4 00:10.7
5 138 5/U14 FFS2686793 2005 MARIE ADELIN MB SC D'AGY 15:14.2 00:16.5
6 132 6/U14 FFS2667744 2005 BIZZOCCHI ESTEBAN MB SC D'AGY 15:25.0 00:27.3
7 148 7/U14 FFS2673756 2005 PEYRON ARTHUR MB CS CHAMONIX 15:26.5 00:28.8
8 169 8/U14 FFS2681546 2005 SEYVET THOMAS SA CS LA FECLAZ 15:28.4 00:30.7
9 128 9/U14 FFS2686681 2005 DELOCHE LINO MB SC GD BORNAN 15:42.5 00:44.8
10 127 10/U14 FFS2686938 2005 VALLEIX JORIS MB SCNP ROCHOIS 15:46.8 00:49.1
11 133 11/U14 FFS2686242 2005 VIGUIER QUENTIN MB CS LA CLUSAZ 15:54.0 00:56.3
12 140 12/U14 FFS2686538 2005 JOMIER LOIS MB DRAGONS ANNY 15:57.3 00:59.6
13 167 13/U14 FFS2682480 2005 CADI GAUTIER SA CS LA FECLAZ 16:05.8 01:08.1
14 168 14/U14 FFS2681098 2005 MATHE MAXIMIN SA CS LA FECLAZ 16:11.6 01:13.9
15 139 15/U14 FFS2666324 2005 FAVRE FELIX KILLIAN MB SC GD BORNAN 16:17.5 01:19.8
16 150 16/U14 FFS2681171 2005 LUZET HUGO MB CS LA CLUSAZ 16:17.9 01:20.2
17 143 17/U14 FFS2686539 2005 LACROIX MATTHIAS MB DRAGONS ANNY 16:19.0 01:21.3
18 134 18/U14 FFS2660043 2005 NORMAND JOAO SA CN REVARD 16:19.5 01:21.8
19 145 19/U14 FFS2686542 2005 PEYRET TILIEN MB DRAGONS ANNY 16:20.0 01:22.3
20 137 20/U14 FFS2687034 2005 FIVEL DEMORET HUGO MB SC CONTAMINE 16:24.7 01:27.0
21 144 21/U14 FFS2692552 2005 PETROD BASTIEN MB CNG 16:34.0 01:36.3
22 142 22/U14 FFS2686795 2005 DELERCE THIBAULT MB SC D'AGY 16:42.6 01:44.9
23 147 23/U14 FFS2687102 2005 SYLVESTRE BARON PAUL MB SCNP ROCHOIS 16:51.0 01:53.3
24 156 24/U14 FFS2680344 2005 DELERCE GASPARD MB LES GETS S.C 17:06.9 02:09.2
25 149 25/U14 FFS2686543 2005 ROMERI NATHAN MB DRAGONS ANNY 17:11.3 02:13.6
26 160 26/U14 FFS2688678 2005 REPELLIN CHARLES MB VILLARD/BOEG 17:25.3 02:27.6
27 152 27/U14 FFS2687035 2005 CORNU MATHIEU MB CS CHAMONIX 17:29.8 02:32.1
28 171 28/U14 FFS2681557 2005 FUSELIER NOE SA BAUGES S.N 17:46.6 02:48.9
29 151 29/U14 FFS2686260 2005 BOSSUT AUGUSTIN MB PRAZ LYS-SOM 17:53.9 02:56.2
30 155 30/U14 FFS2688043 2005 MAGNIEZ OSCAR MB DRAGONS ANNY 17:56.8 02:59.1
31 162 31/U14 FFS2687103 2005 MOREAU SIMEON MB SCNP ROCHOIS 18:00.6 03:02.9
32 158 32/U14 FFS2681304 2005 PERSONNAZ LOAN MB DRAGONS ANNY 18:22.9 03:25.2
33 159 33/U14 FFS2686259 2005 DUCREY BRICE MB PRAZ LYS-SOM 18:24.6 03:26.9
34 164 34/U14 FFS2678687 2005 MILLET DIWAN MB SCNP ROCHOIS 18:33.1 03:35.4
35 154 35/U14 FFS2692554 2005 ZAVARISE NOAH MB CNG 18:35.0 03:37.3
36 153 36/U14 FFS2690481 2005 THABUIS BASILE MB VILLARD/BOEG 18:36.6 03:38.9
37 163 37/U14 FFS2686535 2005 FAILLENET JORIS MB DRAGONS ANNY 19:04.7 04:07.0
38 161 38/U14 FFS2676738 2005 CHETAIL JULES MB CS MEGEVE 19:28.0 04:30.3
39 146 39/U14 FFS2686940 2005 LEVET PROSPER MB SCNP ROCHOIS 23:57.8 09:00.1
40 166 40/U14 FFS2687856 2005 VEISY KILLIAN MB EN HT GIFFRE 25:05.2 10:07.5
Non partants
135 FFS2686695 2005 PERRILLAT BOTTONET JUDICA MB SC GD BORNAN
141 FFS2666342 2005 OUVRIER BUFFET JULES MB CS LA CLUSAZ
157 FFS2686262 2005 LESSERTISSEUX VALENTIN MB PRAZ LYS-SOM
165 FFS2690844 2005 HAEBERLI ARTHUR MB CS LA CLUSAZ
170 FFS2686293 2005 GRANGE JUSTIN MB DRAGONS ANNY